Location: Bukovany
(49.8234°N, 14.6297°E)
Time: 17:29:33
(UTC+00:00)

IRS-P3 - Pass Details

Date: 17 November 2025
Orbit: 810 x 816 km, 99.0° (Epoch: 09 December)

Event Time Altitude Azimuth Distance (km) Brightness Sun altitude
Rises 16:49:40 0° 167° (SSE) 3,330 7.3 -15.0°
Reaches altitude 10° 16:52:00 10° 168° (SSE) 2,402 6.6 -15.4°
Maximum altitude 16:57:19 77° 255° (WSW) 841 4.3 -16.2°
Drops below altitude 10° 17:02:40 10° 342° (NNW) 2,416 6.7 -17.1°
Sets 17:05:02 0° 344° (NNW) 3,352 7.4 -17.5°
